Weather History for PAHN - December, 2012

Change the Weather History Date:

Friday, December 14, 2012

  Actual Average Record
Temperature  
Mean Temperature 36 °F -  
Max Temperature 39 °F 30 °F 45 °F (1980)
Min Temperature 33 °F 23 °F -2 °F (1979)
Degree Days  
Heating Degree Days 29    
Moisture  
Dew Point 33 °F    
Average Humidity 89    
Maximum Humidity 93    
Minimum Humidity 81    
Precipitation  
Precipitation 1.24 in - - ()
Sea Level Pressure  
Sea Level Pressure 29.17 in    
Wind  
Wind Speed 12 mph (East)    
Max Wind Speed 18 mph    
Max Gust Speed 31 mph    
Visibility 7 miles    
Events Rain , Snow    
Averages and records for this station are not official NWS values.
T = Trace of Precipitation, MM = Missing Value Source: NWS Daily Summary

Daily Weather History Graph

Daily Weather History Graph

Search for Another Location

Airport or City:

Trip Planner

Search our weather history database for the weather conditions in past years. The results will help you decide how hot, cold, wet, or windy it might be!

Date:

Astronomy

Dec. 14, 2012 Rise Set
Actual Time 8:51 AM AKST 3:02 PM AKST
Civil Twilight 7:56 AM AKST 3:57 PM AKST
Nautical Twilight 7:01 AM AKST 4:52 PM AKST
Astronomical Twilight 6:11 AM AKST 5:42 PM AKST
Moon 9:45 AM AKST (12/14) 5:24 PM AKST (12/14)
Length of Visible Light 8h 00m
Length of Day
6h 10m
Waxing Crescent, 3% of the Moon is Illuminated
Dec 14
Waxing Crescent
Dec 19
First Quarter
Dec 28
Full
Jan 4
Last Quarter
Jan 11
New

Hourly Weather History & Observations

Time (AKST) Temp. Windchill Dew Point Humidity Pressure Visibility Wind Dir Wind Speed Gust Speed Precip Events Conditions
12:54 AM 36.0 °F 28.0 °F 33.1 °F 89% 29.48 in 10.0 mi East 11.5 mph 23.0 mph N/A   Overcast
1:54 AM 36.0 °F 28.5 °F 33.1 °F 89% 29.47 in 10.0 mi East 10.4 mph 19.6 mph N/A   Overcast
2:54 AM 36.0 °F 28.0 °F 33.1 °F 89% 29.47 in 10.0 mi East 11.5 mph 21.9 mph 0.00 in   Overcast
3:15 AM 35.6 °F 28.6 °F 33.8 °F 93% 29.45 in 10.0 mi East 9.2 mph 16.1 mph 0.00 in Rain Light Rain
3:54 AM 36.0 °F 28.5 °F 33.1 °F 89% 29.44 in 10.0 mi East 10.4 mph 19.6 mph 0.00 in   Overcast
4:08 AM 37.4 °F 29.8 °F 33.8 °F 87% 29.43 in 10.0 mi East 11.5 mph 18.4 mph 0.00 in   Overcast
4:37 AM 37.4 °F 28.2 °F 33.8 °F 87% 29.42 in 10.0 mi East 16.1 mph 31.1 mph 0.00 in   Overcast
4:54 AM 37.0 °F 27.7 °F 33.1 °F 86% 29.43 in 10.0 mi ESE 16.1 mph 28.8 mph 0.00 in Rain Light Rain
5:20 AM 37.4 °F 30.8 °F 33.8 °F 87% 29.41 in 10.0 mi ESE 9.2 mph 25.3 mph 0.00 in   Overcast
5:50 AM 37.4 °F 29.8 °F 33.8 °F 87% 29.41 in 10.0 mi ESE 11.5 mph 20.7 mph 0.00 in Rain Light Rain
5:54 AM 37.0 °F 29.3 °F 33.1 °F 86% 29.42 in 10.0 mi East 11.5 mph 21.9 mph 0.00 in Rain Light Rain
6:34 AM 35.6 °F 25.9 °F 33.8 °F 93% 29.38 in 10.0 mi East 16.1 mph 24.2 mph 0.00 in Rain Light Rain
6:54 AM 36.0 °F 28.0 °F 33.1 °F 89% 29.39 in 10.0 mi East 11.5 mph 26.5 mph 0.00 in   Overcast
7:16 AM 35.6 °F 28.0 °F 33.8 °F 93% 29.36 in 10.0 mi East 10.4 mph 25.3 mph 0.00 in Rain Light Rain
7:54 AM 35.1 °F 26.9 °F 33.1 °F 92% 29.35 in 10.0 mi East 11.5 mph 21.9 mph 0.00 in   Overcast
8:54 AM 35.1 °F 26.4 °F 33.1 °F 92% 29.32 in 10.0 mi East 12.7 mph 25.3 mph 0.00 in Rain Light Rain
9:54 AM 36.0 °F 26.7 °F 33.1 °F 89% 29.29 in 9.0 mi East 15.0 mph 27.6 mph 0.01 in Rain Light Rain
10:49 AM 35.6 °F 25.9 °F 33.8 °F 93% 29.24 in 10.0 mi East 16.1 mph 26.5 mph 0.01 in Rain Light Rain
10:54 AM 36.0 °F 26.3 °F 33.1 °F 89% 29.24 in 10.0 mi East 16.1 mph 26.5 mph 0.01 in Rain Light Rain
11:29 AM 35.6 °F 25.9 °F 33.8 °F 93% 29.22 in 10.0 mi East 16.1 mph 28.8 mph 0.00 in Rain Light Rain
11:36 AM 35.6 °F 25.5 °F 33.8 °F 93% 29.21 in 10.0 mi East 17.3 mph 27.6 mph 0.00 in Rain Light Rain
11:44 AM 35.6 °F 27.1 °F 33.8 °F 93% 29.21 in 10.0 mi East 12.7 mph 25.3 mph 0.00 in Rain Light Rain
11:54 AM 36.0 °F 27.1 °F 33.1 °F 89% 29.21 in 9.0 mi East 13.8 mph 28.8 mph 0.00 in Rain Light Rain
12:54 PM 35.1 °F 25.9 °F 33.1 °F 92% 29.17 in 6.0 mi ENE 13.8 mph 24.2 mph 0.03 in Rain Light Rain
1:01 PM 35.6 °F 27.1 °F 33.8 °F 93% 29.16 in 5.0 mi East 12.7 mph 27.6 mph 0.00 in Rain Light Rain
1:19 PM 35.6 °F 26.6 °F 33.8 °F 93% 29.15 in 3.0 mi East 13.8 mph 21.9 mph 0.03 in Snow Light Snow
1:52 PM 35.6 °F 27.1 °F 33.8 °F 93% 29.13 in 2.5 mi ENE 12.7 mph 23.0 mph 0.07 in Snow Light Snow
1:54 PM 35.1 °F 26.4 °F 33.1 °F 92% 29.14 in 2.5 mi East 12.7 mph 23.0 mph 0.08 in Snow Light Snow
2:07 PM 35.6 °F 27.1 °F 33.8 °F 93% 29.12 in 1.8 mi ENE 12.7 mph 20.7 mph 0.03 in Snow Light Snow
2:22 PM 33.8 °F 24.8 °F 32.0 °F 93% 29.11 in 2.0 mi East 12.7 mph 19.6 mph 0.06 in Snow Light Snow
2:29 PM 33.8 °F 23.5 °F 32.0 °F 93% 29.10 in 1.2 mi East 16.1 mph 21.9 mph 0.07 in Snow Light Snow
2:54 PM 35.1 °F 25.2 °F 32.0 °F 89% 29.10 in 4.0 mi East 16.1 mph 21.9 mph 0.12 in Snow Light Snow
3:54 PM 35.1 °F 27.4 °F 33.1 °F 92% 29.06 in 4.0 mi East 10.4 mph 18.4 mph 0.12 in Rain Rain
4:07 PM 35.6 °F 27.1 °F 32.0 °F 87% 29.04 in 2.5 mi ENE 12.7 mph 19.6 mph 0.05 in Snow Light Snow
4:22 PM 35.6 °F 27.1 °F 32.0 °F 87% 29.03 in 3.0 mi East 12.7 mph 20.7 mph 0.09 in Rain Heavy Rain
4:33 PM 35.6 °F 27.5 °F 32.0 °F 87% 29.02 in 2.5 mi East 11.5 mph 19.6 mph 0.13 in Rain Heavy Rain
4:43 PM 35.6 °F 27.5 °F 32.0 °F 87% 29.01 in 4.0 mi East 11.5 mph 20.7 mph 0.15 in Rain Rain
4:54 PM 36.0 °F 28.5 °F 33.1 °F 89% 29.02 in 4.0 mi East 10.4 mph 19.6 mph 0.18 in Rain Rain
5:47 PM 37.4 °F 30.3 °F 33.8 °F 87% 28.98 in 5.0 mi East 10.4 mph 20.7 mph 0.11 in Rain Rain
5:54 PM 37.0 °F 29.8 °F 33.1 °F 86% 28.99 in 5.0 mi ENE 10.4 mph - 0.12 in Rain Rain
6:54 PM 37.0 °F 30.4 °F 32.0 °F 82% 28.95 in 6.0 mi East 9.2 mph 18.4 mph 0.09 in Rain Rain
7:54 PM 37.0 °F 29.8 °F 32.0 °F 82% 28.92 in 4.0 mi East 10.4 mph 18.4 mph 0.11 in Rain Rain
8:02 PM 35.6 °F 29.2 °F 32.0 °F 87% 28.90 in 3.0 mi East 8.1 mph 18.4 mph 0.01 in Snow Light Snow
8:17 PM 33.8 °F 22.8 °F 30.2 °F 87% 28.90 in 6.0 mi ESE 18.4 mph 27.6 mph 0.03 in Rain Light Rain
8:54 PM 37.0 °F 29.8 °F 33.1 °F 86% 28.89 in 4.0 mi East 10.4 mph - 0.09 in Rain Rain
9:03 PM 37.4 °F 32.1 °F 33.8 °F 87% 28.88 in 3.0 mi East 6.9 mph 19.6 mph 0.03 in Rain Heavy Rain
9:34 PM 39.2 °F 35.0 °F 33.8 °F 81% 28.86 in 5.0 mi Variable 5.8 mph - 0.10 in Rain Rain
9:54 PM 37.9 °F 32.1 °F 33.1 °F 83% 28.87 in 4.0 mi East 8.1 mph 21.9 mph 0.12 in Rain Rain
10:54 PM 36.0 °F 31.1 °F 33.1 °F 89% 28.86 in 6.0 mi East 5.8 mph 18.4 mph 0.09 in Rain Rain
11:54 PM 37.0 °F 30.4 °F 34.0 °F 89% 28.86 in 7.0 mi East 9.2 mph 19.6 mph 0.07 in Rain Light Rain